EST,Max TemperatureF,Mean TemperatureF,Min TemperatureF,Max Dew PointF,MeanDew PointF,Min DewpointF,Max Humidity, Mean Humidity, Min Humidity, Max Sea Level PressureIn, Mean Sea Level PressureIn, Min Sea Level PressureIn, Max VisibilityMiles, Mean VisibilityMiles, Min VisibilityMiles, Max Wind SpeedMPH, Mean Wind SpeedMPH, Max Gust SpeedMPH,PrecipitationIn, CloudCover, Events, WindDirDegrees
2011-11-1,59,45,30,38,34,28,92,68,43,30.37,30.32,30.26,10,10,7,7,0,15,0.00,0,,5
2011-11-2,61,46,30,40,35,27,96,71,46,30.44,30.34,30.24,10,8,3,10,1,14,0.00,0,,160
2011-11-3,66,50,34,43,39,32,96,70,43,30.22,30.07,29.90,10,8,4,8,1,14,0.00,0,,30
2011-11-4,57,49,40,43,35,24,86,61,35,30.29,30.06,29.89,10,9,5,21,10,26,0.00,1,,10
2011-11-5,52,41,29,27,25,24,85,60,35,30.48,30.42,30.31,10,10,8,10,3,15,0.00,0,,22
2011-11-6,57,41,25,37,31,23,92,68,43,30.54,30.46,30.38,10,9,6,12,2,15,0.00,0,,164
2011-11-7,68,49,29,42,33,27,96,67,37,30.41,30.35,30.28,10,7,0,9,1,13,0.00,1,Fog,160
2011-11-8,69,51,32,41,36,30,92,62,32,30.33,30.26,30.20,10,9,5,9,1,13,0.00,0,,163
2011-11-9,66,48,29,43,37,28,92,66,40,30.19,30.08,29.94,10,10,8,14,2,18,0.00,0,,141
2011-11-10,55,49,42,46,38,28,83,65,46,29.96,29.90,29.85,10,10,7,21,8,25,0.05,5,Rain,311
2011-11-11,48,41,33,29,24,21,62,50,38,30.11,29.97,29.85,10,10,10,25,13,37,T,4,,268
2011-11-12,65,47,29,31,27,22,69,49,28,30.13,30.09,30.05,10,10,10,15,6,18,0.00,0,,185
2011-11-13,66,51,35,36,32,28,70,50,29,30.09,30.01,29.92,10,10,10,14,6,20,0.00,0,,174
2011-11-14,74,63,51,51,45,31,64,51,38,29.94,29.85,29.75,10,10,10,15,8,21,0.00,0,,188
2011-11-15,66,60,54,55,53,49,93,73,52,29.97,29.90,29.78,10,9,4,14,3,18,0.19,7,Rain,215
2011-11-16,58,55,51,55,53,46,93,88,83,29.96,29.84,29.73,10,5,0,17,4,22,0.69,8,Fog-Rain,347
2011-11-17,52,43,34,45,27,13,83,60,37,30.23,30.03,29.90,10,10,10,23,11,32,0.00,6,,312
2011-11-18,46,37,27,20,15,8,69,46,22,30.50,30.41,30.26,10,10,10,22,5,31,0.00,0,,251
2011-11-19,53,39,24,28,22,17,81,55,28,30.42,30.32,30.20,10,10,10,12,2,14,0.00,0,,161
2011-11-20,62,54,46,54,47,31,93,71,49,30.22,30.17,30.15,10,7,2,15,6,26,0.20,6,Rain,199
2011-11-21,56,51,46,54,49,44,100,92,83,30.28,30.22,30.13,5,2,0,15,4,18,0.28,8,Fog-Rain,13
2011-11-22,49,48,46,47,46,44,100,97,93,30.27,30.11,29.80,10,3,1,8,3,10,0.82,8,Rain,14
2011-11-23,59,51,42,52,44,29,100,77,54,30.16,29.77,29.61,10,5,0,33,12,46,0.67,6,Fog-Rain,314
2011-11-24,60,46,31,35,31,27,82,59,35,30.29,30.25,30.16,10,10,10,17,6,22,0.00,0,,282
2011-11-25,67,50,32,32,30,27,78,50,22,30.29,30.23,30.17,10,10,10,10,4,13,0.00,0,,190
2011-11-26,68,50,31,40,34,28,85,59,32,30.28,30.21,30.15,10,10,10,14,2,17,0.00,0,,209
2011-11-27,68,52,35,49,41,32,89,69,48,30.14,30.07,30.02,10,10,9,16,4,25,0.00,0,,167
2011-11-28,68,61,54,56,51,48,80,68,55,30.10,30.03,29.94,10,10,10,15,5,20,0.00,6,,138
2011-11-29,63,54,45,58,53,35,90,76,61,29.92,29.75,29.63,10,8,2,23,7,28,0.59,6,Rain,148
2011-11-30,47,42,36,36,30,23,85,69,53,30.16,29.86,29.68,10,10,10,24,10,33,0.00,5,,263